SCP
-0 0 -0 -0 -0 -0 -0 -0 -0 -0 -0 -0 -0 -0 -0 -0 -0 -0 -0 -0 -0 -0 -0 -0 -0 -0 -0 -0 -0 -0 -0 -0 -0 -0 -0 -0 -0 -0 -0 -0 0 0 0
-0 0 -0 -0 -0 -0 -0 -0 -0 -0 -0 -0 -0 -0 -0 -0 -0 -0 -0 -0 -0 -0 -0 -0 -0 0 -0 -0 -0 0 -0 -0 0 0 0 -0 -0 -0 -0 -0 -0 0 0
-0 -0 -0 -0 -0 -0 -0 0 0 0 -0 -0 -0 -0 -0 -0 -0 -0 -0 -0 -0 -0 -0 -0 -0 -0 -0 -0 -0 -0 -0 -0 -0 -0 -0 0 0 -0 -0 -0 -0 -0 -0
-0 -0 -0 -0 -0 -0 -0 -0 -0 -0 -0 -0 -0 -0 -0 -0 -0 -0 -0 -0 -0 -0 -0 -0 -0 -0 -0 -0 -0 -0 -0 -0 -0 -0 0 0 -0 -0 -0 -0 -0 -0 -0
-0 -0 -0 -0 -0 -0 -0 -0 -0 -0 -0 -0 -0 -0 -0 -0 -0 -0 -0 -0 -0 -0 -0 -0 -0 -0 -0 -0 -0 -0 -0 -0 -0 -0 0 -0 0 -0 -0 -0 -0 -0 -0
-0 -0 -0 -0 -0 -0 -0 -0 -0 -0 -0 -0 -0 -0 -0 -0 -0 -0 -0 -0 -0 -0 -0 -0 -0 -0 -0 -0 -0 -0 -0 -0 -0 -0 0 -0 0 -0 -0 -0 -0 -0 -0
-0 -0 -0 -0 -0 -0 -0 -0 -0 -0 -0 -0 -0 -0 -0 -0 -0 -0 -0 -0 -0 -0 -0 -0 -0 -0 0 0 0 -0 -0 -0 0 0 0 0 0 -0 -0 -0 -0 0 0
-0 -0 -0 -0 -0 -0 -0 -0 -0 -0 -0 -0 -0 -0 -0 -0 -0 -0 -0 -0 -0 -0 -0 -0 -0 -0 -0 -0 -0 -0 0 -0 0 0 0 0 0 0 0 0 0 0 0
-0 -0 0 -0 -0 -0 0 0 0 -0 -0 -0 -0 -0 -0 -0 -0 -0 -0 -0 -0 -0 -0 -0 -0 -0 -0 -0 -0 0 0 0 0 0 0 0 0 0 0 0 0 0 0
0 0 0 0 0 0 0 0 0 0 -0 -0 -0 -0 -0 -0 -0 -0 -0 -0 -0 -0 -0 -0 0 0 0 0 0 0 0 0 0 0 0 0 0 0 0 0 0 0 0
0 0 0 0 0 0 0 0 0 0 -0 -0 0 0 0 0 0 0 0 -0 -0 0 0 0 0 0 0 0 0 0 0 0 0 0 0 0 0 0 0 0 0 0 0
0 0 0 0 0 0 0 0 0 0 0 0 0 0 0 0 0 0 0 0 0 0 0 0 0 0 0 0 0 0 0 0 0 0 0 0 0 0 0 0 0 0 0
0 0 0 0 0 0 0 0 0 0 0 0 0 0 0 0 0 0 0 0 0 0 0 0 0 0 0 0 0 0 0 0 0 0 0 0 0 0 0 0 0 0 0
0 0 0 0 0 0 0 0 0 0 0 0 0 0 0 0 0 0 0 0 0 0 0 0 0 0 0 0 0 0 0 0 0 0 0 0 0 0 0 0 0 0 0
0 0 0 0 0 0 0 0 0 0 0 0 0 0 0 0 0 0 0 0 0 0 0 0 0 0 0 0 0 0 0 0 0 0 0 0 0 0 0 0 0 0 0
0 0 0 0 0 0 0 0 0 0 0 0 0 0 0 0 0 0 0 0 0 0 0 0 0 0 0 0 0 0 0 0 0 0 0 0 0 0 0 0 0 0 0
0 0 0 0 0 0 0 0 0 0 0 0 0 0 0 0 0 0 0 0 0 0 0 0 0 0 0 0 0 0 0 0 0 0 0 0 0 0 0 0 0 0 0
0 0 0 0 0 0 0 0 0 0 0 0 0 0 0 0 0 0 0 0 0 0 0 0 0 0 0 0 0 0 0 0 0 0 0 0 0 0 0 0 0 0 0
0 0 0 0 0 0 0 0 0 0 0 0 0 0 0 0 0 0 0 0 0 0 0 0 0 0 0 0 0 0 0 0 0 0 0 0 0 0 0 0 0 0 0
0 0 0 0 0 0 0 0 0 0 0 0 0 0 0 0 0 0 0 0 0 0 0 0 0 0 0 0 0 0 0 0 0 0 0 0 0 0 0 0 0 0 0
0 0 0 0 0 0 0 0 0 0 0 0 0 0 0 0 0 0 0 0 0 0 0 0 0 0 0 0 0 0 0 0 0 0 0 0 0 0 0 0 0 0 0
0 0 0 0 0 0 0 0 0 0 0 0 0 0 0 0 0 0 0 0 0 0 0 0 0 0 0 0 0 0 0 0 0 0 0 0 0 0 0 0 0 0 0
0 0 0 0 0 0 0 0 0 0 0 0 0 0 0 0 0 0 0 0 0 0 0 0 0 0 0 0 0 0 0 0 0 0 0 0 0 0 0 0 0 0 0
0 0 0 0 0 0 0 0 0 0 0 0 0 0 0 0 0 0 0 0 0 0 0 0 0 0 0 0 0 0 0 0 0 0 0 0 0 0 0 0 -0 -0 0
0 0 0 0 0 0 0 0 0 0 0 0 0 0 0 0 0 0 0 0 0 0 0 0 0 0 0 0 0 0 0 0 0 0 0 0 0 -0 -0 -0 -0 -0 -0
0 0 0 0 0 0 0 0 0 0 0 0 0 0 0 0 0 0 0 0 0 0 0 0 0 0 0 0 0 0 -0 0 0 -0 -0 -0 -0 -0 -0 -0 -0 -0 -0
Wind_Speed_500mb
13 23 22 24 26 24 22 22 21 19 16 14 16 19 23 25 24 25 25 26 24 23 22 22 21 19 20 20 22 25 26 26 26 26 26 25 19 20 24 23 24 24 23
16 26 23 24 25 25 23 20 19 16 14 14 14 15 19 22 24 23 23 22 21 21 21 20 19 18 20 21 22 24 27 29 26 23 21 15 20 26 26 23 23 25 22
19 27 24 24 24 23 23 22 20 18 17 12 12 11 15 19 19 18 20 20 19 20 19 18 17 16 18 21 22 24 30 27 26 23 20 15 12 16 15 17 19 22 22
20 20 24 25 24 23 21 20 19 15 16 13 11 12 12 16 17 21 23 21 18 16 16 16 16 15 14 16 20 23 25 22 20 16 14 17 10 8 6 5 8 10 11
21 19 24 24 22 20 24 21 19 17 14 12 13 14 10 17 20 23 23 23 21 17 17 16 14 13 12 13 18 23 28 21 19 15 7 13 13 13 10 5 5 6 6
22 16 17 21 21 19 21 20 16 15 11 14 16 11 10 15 18 21 23 23 19 18 18 17 16 15 14 15 19 25 27 21 16 12 17 13 15 14 12 12 9 7 5
26 21 20 22 22 19 17 19 17 15 10 12 12 8 7 11 15 20 22 24 21 18 18 17 17 17 16 17 19 23 24 19 14 8 9 17 19 18 13 14 14 13 12
24 21 18 19 24 23 20 19 17 14 12 12 11 5 1 5 10 15 19 21 21 19 19 19 18 16 15 15 16 17 16 13 12 8 3 5 8 14 16 17 16 15 14
31 24 18 20 18 19 18 18 17 16 13 12 11 8 5 1 3 14 17 18 17 19 20 19 18 16 14 11 10 8 7 5 6 6 8 10 10 17 18 18 17 15 14
35 32 23 24 27 26 22 18 16 16 14 13 13 11 9 2 7 16 18 22 16 16 20 22 20 18 16 13 10 5 2 6 8 8 9 12 13 15 17 17 18 16 16
29 33 29 29 29 29 22 21 18 17 16 15 15 14 13 9 2 5 10 22 21 18 21 22 21 20 18 16 14 12 11 12 15 14 13 13 13 14 16 17 16 16 16
29 31 28 27 34 41 28 20 19 22 17 18 19 18 16 13 10 5 8 16 18 19 23 22 19 23 21 18 17 16 16 17 17 17 16 17 17 17 16 16 18 19 18
26 26 25 25 26 35 39 28 26 23 22 23 19 17 21 19 18 5 2 9 10 15 21 27 28 23 24 21 20 20 20 20 21 20 18 15 14 14 15 16 17 18 20
27 25 24 26 27 30 46 44 31 30 29 26 25 22 22 21 23 17 8 1 4 9 13 19 22 22 17 17 17 17 18 18 18 17 19 20 18 15 14 13 13 14 17
20 21 22 24 29 36 41 46 42 33 31 32 27 28 24 23 21 16 6 3 3 7 7 5 10 9 14 18 20 21 21 22 22 20 17 16 16 16 17 19 18 17 17
16 17 18 20 25 33 40 39 40 43 34 33 27 25 28 26 22 13 7 5 14 8 9 13 7 4 11 15 22 24 24 22 23 23 22 18 17 15 16 17 17 18 19
19 20 20 22 24 28 34 38 38 36 33 28 27 27 27 22 22 18 18 17 19 15 14 4 3 6 11 15 19 19 17 16 18 25 25 18 15 15 16 16 17 19 20
22 23 25 25 27 31 35 39 38 37 34 31 23 23 22 22 21 21 17 14 12 9 8 3 4 9 16 15 9 10 15 14 16 20 17 17 15 16 18 20 20 19 20
24 24 25 24 29 33 36 37 40 36 35 30 26 25 21 20 19 14 11 7 7 10 8 4 7 10 13 11 11 18 23 24 21 17 22 24 24 23 26 29 30 30 27
22 21 19 20 31 38 43 44 46 41 36 31 28 27 25 24 18 13 13 16 14 10 3 4 11 16 20 19 16 14 17 16 21 20 21 22 22 18 23 33 38 35 31
24 20 21 30 38 42 54 58 50 48 43 37 32 25 23 24 20 21 14 15 12 10 17 19 17 17 21 20 12 8 11 10 18 17 13 14 20 24 31 40 43 41 40
24 25 29 35 42 53 53 51 49 48 45 41 37 30 30 25 25 22 21 25 25 22 21 18 17 20 24 25 19 7 3 4 11 16 12 27 34 41 48 51 52 51 51
33 33 36 42 49 50 50 52 52 52 47 41 38 37 33 31 33 33 31 27 24 18 17 19 20 21 27 27 29 22 10 13 38 10 22 29 49 54 56 57 58 58 57
42 42 45 47 53 54 55 51 51 47 47 47 43 45 47 41 38 33 28 23 19 18 17 19 22 23 21 25 26 30 26 26 21 29 40 55 60 60 63 67 65 66 61
49 51 53 54 56 55 52 48 48 50 49 52 53 53 49 43 35 30 23 19 17 17 20 21 23 26 29 29 29 26 24 25 27 38 55 77 79 80 78 77 71 67 69
55 56 57 59 57 54 52 50 46 49 56 61 58 52 47 39 32 26 20 16 16 17 19 21 25 25 29 29 30 32 37 40 44 48 62 75 78 82 83 77 76 76 68
Wind_Direction_500mb
183 173 158 149 141 134 128 124 122 114 109 99 86 79 64 52 48 50 47 48 52 57 60 61 68 77 67 84 81 79 73 69 66 63 62 58 74 67 63 70 72 73 72
181 169 159 152 148 143 139 132 125 124 113 107 93 75 58 53 52 49 42 41 45 50 51 54 63 70 71 90 83 81 76 70 69 65 50 61 66 66 61 60 66 71 70
166 165 162 154 153 150 147 144 141 137 124 123 110 86 69 50 45 44 36 34 38 42 48 50 54 67 82 94 94 92 93 84 70 61 47 65 87 86 72 59 60 65 68
162 166 164 157 155 156 156 151 148 140 133 136 127 109 71 33 39 36 29 27 31 43 53 50 52 57 68 91 100 100 102 92 71 60 16 29 90 88 82 75 45 42 47
155 161 169 159 155 161 164 160 152 149 143 146 136 123 75 46 42 38 32 34 40 42 41 43 54 64 71 79 95 99 105 94 75 52 359 39 43 68 67 42 20 33 20
156 143 162 167 162 159 157 164 161 152 147 146 145 120 55 50 44 38 33 33 39 44 43 43 49 59 71 90 101 112 114 91 90 69 43 47 38 34 41 33 14 9 12
158 165 175 185 181 173 167 177 174 167 163 170 166 142 55 46 36 32 32 37 40 43 42 42 49 58 70 86 105 127 129 109 93 71 60 51 42 16 24 21 11 357 355
166 176 185 193 183 186 183 185 184 185 183 181 182 180 85 38 37 29 29 33 38 41 44 45 46 52 65 82 107 138 146 158 173 73 21 31 37 20 24 11 8 0 351
174 166 172 180 185 194 194 191 191 185 190 195 201 209 205 178 32 29 28 27 31 40 45 47 48 50 58 69 86 123 164 222 336 338 17 4 343 345 2 2 1 2 352
185 187 164 183 196 191 198 208 208 205 209 209 212 215 221 265 52 15 36 29 29 37 40 43 45 43 39 40 54 81 202 283 324 338 350 348 343 347 354 356 355 354 353
186 189 194 182 193 204 200 204 203 209 214 221 219 221 236 169 196 351 38 43 24 38 36 33 36 41 42 38 33 18 0 343 340 341 338 337 339 344 345 343 345 349 350
200 205 211 204 202 196 194 193 211 217 224 233 238 229 218 196 197 179 91 71 40 28 27 25 38 36 33 36 37 29 15 2 348 344 338 335 333 333 332 331 335 338 341
223 217 213 212 203 200 191 189 200 214 213 216 218 219 206 208 191 190 179 58 53 27 11 15 19 36 35 33 34 31 25 12 355 344 330 324 323 321 321 323 326 327 332
224 221 220 220 213 198 196 196 204 205 210 207 201 197 197 209 195 187 190 216 104 13 8 10 5 10 19 28 34 29 20 12 0 342 327 314 307 303 301 303 307 311 313
219 220 221 220 214 207 206 202 200 203 207 209 204 195 197 202 203 179 171 303 269 323 293 301 325 352 355 358 355 350 349 349 349 341 329 317 310 309 311 309 311 306 301
221 222 223 220 210 208 205 199 198 204 201 194 195 189 191 190 189 202 207 234 280 261 245 287 260 282 324 331 327 324 330 339 350 343 337 327 321 320 320 321 316 312 309
238 244 241 233 222 209 201 195 199 203 210 214 208 205 202 210 231 236 248 254 266 249 261 209 147 299 307 322 319 314 320 344 347 347 348 341 329 327 325 324 322 323 316
251 253 253 238 219 199 195 190 197 200 198 195 195 198 209 218 213 209 224 198 189 179 195 183 239 297 317 320 351 41 42 16 349 352 13 32 32 24 17 12 359 342 331
251 253 247 230 198 184 182 187 190 197 195 191 191 191 191 193 198 202 212 209 167 166 180 218 323 334 43 54 55 66 61 63 50 42 43 45 42 40 37 30 20 9 360
242 241 225 190 171 172 173 172 181 182 178 182 187 190 200 184 175 176 179 159 169 182 169 92 84 69 65 64 71 75 64 52 39 31 37 35 31 24 13 1 359 359 353
220 215 180 167 168 173 186 188 195 181 174 176 171 173 165 161 159 152 162 154 140 134 117 105 87 78 73 72 81 74 83 53 30 11 10 3 357 350 343 340 342 343 339
205 187 177 171 175 182 183 186 181 171 165 166 161 165 161 160 158 155 151 137 127 119 108 91 66 48 46 45 57 74 5 277 315 311 336 329 336 333 333 336 337 335 336
192 182 180 179 174 175 177 174 175 166 160 160 156 159 153 151 143 141 137 131 124 113 92 68 52 38 35 29 27 39 20 352 343 281 304 317 323 327 331 334 335 337 336
186 187 182 180 180 180 181 177 175 176 170 160 162 154 146 146 143 139 133 125 111 89 75 55 45 37 35 37 31 30 22 7 356 324 316 323 326 328 333 334 337 335 336
190 187 185 183 182 177 179 182 178 172 165 160 157 155 151 147 143 135 123 110 95 75 59 48 38 28 24 22 22 21 19 8 354 339 328 329 328 333 335 334 334 335 332
191 189 189 185 181 182 182 179 184 185 172 164 160 159 152 147 141 132 123 106 84 65 52 40 33 28 24 24 21 15 8 3 353 347 334 332 329 325 328 330 329 330 328
Wind_Speed_850mb
13 23 22 24 26 24 22 22 21 19 16 14 16 19 23 25 24 25 25 26 24 23 22 22 21 19 20 20 22 25 26 26 26 26 26 25 19 20 24 23 24 24 23
16 26 23 24 25 25 23 20 19 16 14 14 14 15 19 22 24 23 23 22 21 21 21 20 19 18 20 21 22 24 27 29 26 23 21 15 20 26 26 23 23 25 22
19 27 24 24 24 23 23 22 20 18 17 12 12 11 15 19 19 18 20 20 19 20 19 18 17 16 18 21 22 24 30 27 26 23 20 15 12 16 15 17 19 22 22
20 20 24 25 24 23 21 20 19 15 16 13 11 12 12 16 17 21 23 21 18 16 16 16 16 15 14 16 20 23 25 22 20 16 14 17 10 8 6 5 8 10 11
21 19 24 24 22 20 24 21 19 17 14 12 13 14 10 17 20 23 23 23 21 17 17 16 14 13 12 13 18 23 28 21 19 15 7 13 13 13 10 5 5 6 6
22 16 17 21 21 19 21 20 16 15 11 14 16 11 10 15 18 21 23 23 19 18 18 17 16 15 14 15 19 25 27 21 16 12 17 13 15 14 12 12 9 7 5
26 21 20 22 22 19 17 19 17 15 10 12 12 8 7 11 15 20 22 24 21 18 18 17 17 17 16 17 19 23 24 19 14 8 9 17 19 18 13 14 14 13 12
24 21 18 19 24 23 20 19 17 14 12 12 11 5 1 5 10 15 19 21 21 19 19 19 18 16 15 15 16 17 16 13 12 8 3 5 8 14 16 17 16 15 14
31 24 18 20 18 19 18 18 17 16 13 12 11 8 5 1 3 14 17 18 17 19 20 19 18 16 14 11 10 8 7 5 6 6 8 10 10 17 18 18 17 15 14
35 32 23 24 27 26 22 18 16 16 14 13 13 11 9 2 7 16 18 22 16 16 20 22 20 18 16 13 10 5 2 6 8 8 9 12 13 15 17 17 18 16 16
29 33 29 29 29 29 22 21 18 17 16 15 15 14 13 9 2 5 10 22 21 18 21 22 21 20 18 16 14 12 11 12 15 14 13 13 13 14 16 17 16 16 16
29 31 28 27 34 41 28 20 19 22 17 18 19 18 16 13 10 5 8 16 18 19 23 22 19 23 21 18 17 16 16 17 17 17 16 17 17 17 16 16 18 19 18
26 26 25 25 26 35 39 28 26 23 22 23 19 17 21 19 18 5 2 9 10 15 21 27 28 23 24 21 20 20 20 20 21 20 18 15 14 14 15 16 17 18 20
27 25 24 26 27 30 46 44 31 30 29 26 25 22 22 21 23 17 8 1 4 9 13 19 22 22 17 17 17 17 18 18 18 17 19 20 18 15 14 13 13 14 17
20 21 22 24 29 36 41 46 42 33 31 32 27 28 24 23 21 16 6 3 3 7 7 5 10 9 14 18 20 21 21 22 22 20 17 16 16 16 17 19 18 17 17
16 17 18 20 25 33 40 39 40 43 34 33 27 25 28 26 22 13 7 5 14 8 9 13 7 4 11 15 22 24 24 22 23 23 22 18 17 15 16 17 17 18 19
19 20 20 22 24 28 34 38 38 36 33 28 27 27 27 22 22 18 18 17 19 15 14 4 3 6 11 15 19 19 17 16 18 25 25 18 15 15 16 16 17 19 20
22 23 25 25 27 31 35 39 38 37 34 31 23 23 22 22 21 21 17 14 12 9 8 3 4 9 16 15 9 10 15 14 16 20 17 17 15 16 18 20 20 19 20
24 24 25 24 29 33 36 37 40 36 35 30 26 25 21 20 19 14 11 7 7 10 8 4 7 10 13 11 11 18 23 24 21 17 22 24 24 23 26 29 30 30 27
22 21 19 20 31 38 43 44 46 41 36 31 28 27 25 24 18 13 13 16 14 10 3 4 11 16 20 19 16 14 17 16 21 20 21 22 22 18 23 33 38 35 31
24 20 21 30 38 42 54 58 50 48 43 37 32 25 23 24 20 21 14 15 12 10 17 19 17 17 21 20 12 8 11 10 18 17 13 14 20 24 31 40 43 41 40
24 25 29 35 42 53 53 51 49 48 45 41 37 30 30 25 25 22 21 25 25 22 21 18 17 20 24 25 19 7 3 4 11 16 12 27 34 41 48 51 52 51 51
33 33 36 42 49 50 50 52 52 52 47 41 38 37 33 31 33 33 31 27 24 18 17 19 20 21 27 27 29 22 10 13 38 10 22 29 49 54 56 57 58 58 57
42 42 45 47 53 54 55 51 51 47 47 47 43 45 47 41 38 33 28 23 19 18 17 19 22 23 21 25 26 30 26 26 21 29 40 55 60 60 63 67 65 66 61
49 51 53 54 56 55 52 48 48 50 49 52 53 53 49 43 35 30 23 19 17 17 20 21 23 26 29 29 29 26 24 25 27 38 55 77 79 80 78 77 71 67 69
55 56 57 59 57 54 52 50 46 49 56 61 58 52 47 39 32 26 20 16 16 17 19 21 25 25 29 29 30 32 37 40 44 48 62 75 78 82 83 77 76 76 68
Wind_Direction_850mb
183 173 158 149 141 134 128 124 122 114 109 99 86 79 64 52 48 50 47 48 52 57 60 61 68 77 67 84 81 79 73 69 66 63 62 58 74 67 63 70 72 73 72
181 169 159 152 148 143 139 132 125 124 113 107 93 75 58 53 52 49 42 41 45 50 51 54 63 70 71 90 83 81 76 70 69 65 50 61 66 66 61 60 66 71 70
166 165 162 154 153 150 147 144 141 137 124 123 110 86 69 50 45 44 36 34 38 42 48 50 54 67 82 94 94 92 93 84 70 61 47 65 87 86 72 59 60 65 68
162 166 164 157 155 156 156 151 148 140 133 136 127 109 71 33 39 36 29 27 31 43 53 50 52 57 68 91 100 100 102 92 71 60 16 29 90 88 82 75 45 42 47
155 161 169 159 155 161 164 160 152 149 143 146 136 123 75 46 42 38 32 34 40 42 41 43 54 64 71 79 95 99 105 94 75 52 359 39 43 68 67 42 20 33 20
156 143 162 167 162 159 157 164 161 152 147 146 145 120 55 50 44 38 33 33 39 44 43 43 49 59 71 90 101 112 114 91 90 69 43 47 38 34 41 33 14 9 12
158 165 175 185 181 173 167 177 174 167 163 170 166 142 55 46 36 32 32 37 40 43 42 42 49 58 70 86 105 127 129 109 93 71 60 51 42 16 24 21 11 357 355
166 176 185 193 183 186 183 185 184 185 183 181 182 180 85 38 37 29 29 33 38 41 44 45 46 52 65 82 107 138 146 158 173 73 21 31 37 20 24 11 8 0 351
174 166 172 180 185 194 194 191 191 185 190 195 201 209 205 178 32 29 28 27 31 40 45 47 48 50 58 69 86 123 164 222 336 338 17 4 343 345 2 2 1 2 352
185 187 164 183 196 191 198 208 208 205 209 209 212 215 221 265 52 15 36 29 29 37 40 43 45 43 39 40 54 81 202 283 324 338 350 348 343 347 354 356 355 354 353
186 189 194 182 193 204 200 204 203 209 214 221 219 221 236 169 196 351 38 43 24 38 36 33 36 41 42 38 33 18 0 343 340 341 338 337 339 344 345 343 345 349 350
200 205 211 204 202 196 194 193 211 217 224 233 238 229 218 196 197 179 91 71 40 28 27 25 38 36 33 36 37 29 15 2 348 344 338 335 333 333 332 331 335 338 341
223 217 213 212 203 200 191 189 200 214 213 216 218 219 206 208 191 190 179 58 53 27 11 15 19 36 35 33 34 31 25 12 355 344 330 324 323 321 321 323 326 327 332
224 221 220 220 213 198 196 196 204 205 210 207 201 197 197 209 195 187 190 216 104 13 8 10 5 10 19 28 34 29 20 12 0 342 327 314 307 303 301 303 307 311 313
219 220 221 220 214 207 206 202 200 203 207 209 204 195 197 202 203 179 171 303 269 323 293 301 325 352 355 358 355 350 349 349 349 341 329 317 310 309 311 309 311 306 301
221 222 223 220 210 208 205 199 198 204 201 194 195 189 191 190 189 202 207 234 280 261 245 287 260 282 324 331 327 324 330 339 350 343 337 327 321 320 320 321 316 312 309
238 244 241 233 222 209 201 195 199 203 210 214 208 205 202 210 231 236 248 254 266 249 261 209 147 299 307 322 319 314 320 344 347 347 348 341 329 327 325 324 322 323 316
251 253 253 238 219 199 195 190 197 200 198 195 195 198 209 218 213 209 224 198 189 179 195 183 239 297 317 320 351 41 42 16 349 352 13 32 32 24 17 12 359 342 331
251 253 247 230 198 184 182 187 190 197 195 191 191 191 191 193 198 202 212 209 167 166 180 218 323 334 43 54 55 66 61 63 50 42 43 45 42 40 37 30 20 9 360
242 241 225 190 171 172 173 172 181 182 178 182 187 190 200 184 175 176 179 159 169 182 169 92 84 69 65 64 71 75 64 52 39 31 37 35 31 24 13 1 359 359 353
220 215 180 167 168 173 186 188 195 181 174 176 171 173 165 161 159 152 162 154 140 134 117 105 87 78 73 72 81 74 83 53 30 11 10 3 357 350 343 340 342 343 339
205 187 177 171 175 182 183 186 181 171 165 166 161 165 161 160 158 155 151 137 127 119 108 91 66 48 46 45 57 74 5 277 315 311 336 329 336 333 333 336 337 335 336
192 182 180 179 174 175 177 174 175 166 160 160 156 159 153 151 143 141 137 131 124 113 92 68 52 38 35 29 27 39 20 352 343 281 304 317 323 327 331 334 335 337 336
186 187 182 180 180 180 181 177 175 176 170 160 162 154 146 146 143 139 133 125 111 89 75 55 45 37 35 37 31 30 22 7 356 324 316 323 326 328 333 334 337 335 336
190 187 185 183 182 177 179 182 178 172 165 160 157 155 151 147 143 135 123 110 95 75 59 48 38 28 24 22 22 21 19 8 354 339 328 329 328 333 335 334 334 335 332
191 189 189 185 181 182 182 179 184 185 172 164 160 159 152 147 141 132 123 106 84 65 52 40 33 28 24 24 21 15 8 3 353 347 334 332 329 325 328 330 329 330 328